Jefferson, GA

9:20 AM EDT on May 25, 2017 (GMT -0400)
Jefferson

Weather History for K19A - March, 2013

Change the Weather History Date:

Sunday, March 3, 2013

  Actual Average (KWDR) Record (KWDR)
Temperature  
Mean Temperature 35 °F -  
Max Temperature 42 °F 64 °F 80 °F (1992)
Min Temperature 28 °F 39 °F 3 °F (2002)
Degree Days  
Heating Degree Days 30    
Moisture  
Dew Point 8 °F    
Average Humidity 35    
Maximum Humidity 51    
Minimum Humidity 14    
Precipitation  
Precipitation 0.00 in - - ()
Sea Level Pressure  
Sea Level Pressure 29.99 in    
Wind  
Wind Speed 9 mph (NW)    
Max Wind Speed 18 mph    
Max Gust Speed 28 mph    
Visibility 10 miles    
Events      
Averages and records for this station are not official NWS values.
T = Trace of Precipitation, MM = Missing Value Source: NWS Daily Summary

Daily Weather History Graph

Daily Weather History Graph

Search for Another Location

Airport or City:

Trip Planner

Search our weather history database for the weather conditions in past years. The results will help you decide how hot, cold, wet, or windy it might be!

Date:

Astronomy

Mar. 03, 2013 Rise Set
Actual Time 7:00 AM EST 6:32 PM EST
Civil Twilight 6:35 AM EST 6:57 PM EST
Nautical Twilight 6:06 AM EST 7:26 PM EST
Astronomical Twilight 5:37 AM EST 7:55 PM EST
Moon No Moon Rise 10:32 AM EST (3/3)
Length of Visible Light 12h 22m
Length of Day
11h 32m
Waning Gibbous, 64% of the Moon is Illuminated
Mar 3
Waning Gibbous
Mar 4
Last Quarter
Mar 11
New
Mar 19
First Quarter
Mar 27
Full

Hourly Weather History & Observations

Time (EST) Temp. Windchill Dew Point Humidity Pressure Visibility Wind Dir Wind Speed Gust Speed Precip Events Conditions
12:15 AM 32.0 °F 23.0 °F 14.0 °F 48% 29.96 in 10.0 mi NW 11.5 mph 18.4 mph N/A   Clear
12:35 AM 32.0 °F 23.0 °F 14.0 °F 48% 29.97 in 10.0 mi NW 11.5 mph - N/A   Clear
12:55 AM 32.0 °F 24.2 °F 14.0 °F 48% 29.97 in 10.0 mi NW 9.2 mph - N/A   Clear
1:15 AM 32.0 °F 25.6 °F 14.0 °F 48% 29.97 in 10.0 mi WNW 6.9 mph - N/A   Clear
1:35 AM 32.0 °F 24.8 °F 14.0 °F 48% 29.97 in 10.0 mi WNW 8.1 mph - N/A   Clear
1:55 AM 32.0 °F 24.8 °F 14.0 °F 48% 29.97 in 10.0 mi WNW 8.1 mph - N/A   Clear
2:15 AM 30.2 °F 23.4 °F 12.2 °F 47% 29.97 in 10.0 mi WNW 6.9 mph - N/A   Clear
2:35 AM 30.2 °F 22.6 °F 12.2 °F 47% 29.97 in 10.0 mi NW 8.1 mph - N/A   Clear
2:55 AM 30.2 °F 23.4 °F 12.2 °F 47% 29.96 in 10.0 mi NW 6.9 mph - N/A   Clear
3:15 AM 30.2 °F 24.3 °F 12.2 °F 47% 29.96 in 10.0 mi NW 5.8 mph - N/A   Clear
3:35 AM 30.2 °F 23.4 °F 12.2 °F 47% 29.96 in 10.0 mi NW 6.9 mph - N/A   Clear
4:15 AM 30.2 °F 22.6 °F 12.2 °F 47% 29.96 in 10.0 mi NW 8.1 mph - N/A   Clear
4:35 AM 30.2 °F 22.6 °F 12.2 °F 47% 29.96 in 10.0 mi NW 8.1 mph - N/A   Clear
4:55 AM 28.4 °F 23.3 °F 12.2 °F 51% 29.96 in 10.0 mi WNW 4.6 mph - N/A   Clear
5:15 AM 30.2 °F 24.3 °F 12.2 °F 47% 29.96 in 10.0 mi NW 5.8 mph - N/A   Clear
5:35 AM 28.4 °F 22.2 °F 12.2 °F 51% 29.97 in 10.0 mi NW 5.8 mph - N/A   Clear
5:55 AM 28.4 °F 22.2 °F 12.2 °F 51% 29.97 in 10.0 mi NW 5.8 mph - N/A   Clear
6:15 AM 28.4 °F 23.3 °F 12.2 °F 51% 29.97 in 10.0 mi WNW 4.6 mph - N/A   Clear
6:35 AM 28.4 °F 23.3 °F 12.2 °F 51% 29.97 in 10.0 mi NW 4.6 mph - N/A   Clear
7:15 AM 28.4 °F 23.3 °F 12.2 °F 51% 29.98 in 10.0 mi WNW 4.6 mph - N/A   Clear
7:35 AM 28.4 °F 23.3 °F 12.2 °F 51% 29.98 in 10.0 mi NW 4.6 mph - N/A   Clear
7:55 AM 30.2 °F 24.3 °F 12.2 °F 47% 29.99 in 10.0 mi WNW 5.8 mph - N/A   Clear
8:15 AM 32.0 °F 24.2 °F 12.2 °F 44% 30.00 in 10.0 mi NW 9.2 mph - N/A   Clear
8:35 AM 32.0 °F 24.2 °F 10.4 °F 41% 30.00 in 10.0 mi NW 9.2 mph - N/A   Clear
9:15 AM 33.8 °F 27.0 °F 10.4 °F 38% 30.00 in 10.0 mi NW 8.1 mph - N/A   Clear
9:35 AM 33.8 °F 28.6 °F 10.4 °F 38% 30.00 in 10.0 mi NNW 5.8 mph - N/A   Clear
9:55 AM 33.8 °F 25.3 °F 8.6 °F 35% 30.00 in 10.0 mi WNW 11.5 mph 16.1 mph N/A   Clear
10:15 AM 35.6 °F 28.0 °F 8.6 °F 33% 30.00 in 10.0 mi NW 10.4 mph - N/A   Clear
10:35 AM 35.6 °F 28.6 °F 8.6 °F 33% 29.99 in 10.0 mi NW 9.2 mph 16.1 mph N/A   Clear
10:55 AM 35.6 °F 28.0 °F 8.6 °F 33% 29.99 in 10.0 mi WNW 10.4 mph - N/A   Scattered Clouds
11:15 AM 37.4 °F 30.8 °F 6.8 °F 28% 29.99 in 10.0 mi WNW 9.2 mph - N/A   Scattered Clouds
11:35 AM 35.6 °F 27.5 °F 6.8 °F 30% 29.99 in 10.0 mi NW 11.5 mph 16.1 mph N/A   Scattered Clouds
11:55 AM 37.4 °F 31.4 °F 5.0 °F 26% 29.99 in 10.0 mi WNW 8.1 mph 18.4 mph N/A   Scattered Clouds
12:15 PM 39.2 °F 32.0 °F 5.0 °F 24% 29.98 in 10.0 mi West 11.5 mph 18.4 mph N/A   Clear
12:35 PM 39.2 °F 35.0 °F 1.4 °F 21% 29.98 in 10.0 mi West 5.8 mph - N/A   Clear
12:55 PM 39.2 °F 30.8 °F 3.2 °F 22% 29.98 in 10.0 mi West 15.0 mph 21.9 mph N/A   Clear
1:15 PM 41.0 °F 34.7 °F 3.2 °F 21% 29.97 in 10.0 mi WNW 10.4 mph - N/A   Clear
1:35 PM 41.0 °F 33.5 °F -0.4 °F 18% 29.96 in 10.0 mi WNW 13.8 mph 20.7 mph N/A   Clear
1:55 PM 41.0 °F 32.5 °F 3.2 °F 21% 29.96 in 10.0 mi WNW 17.3 mph 24.2 mph N/A   Clear
2:15 PM 41.0 °F 34.3 °F 1.4 °F 19% 29.96 in 10.0 mi NW 11.5 mph 19.6 mph N/A   Clear
2:35 PM 41.0 °F 34.7 °F -0.4 °F 18% 29.95 in 10.0 mi WNW 10.4 mph 21.9 mph N/A   Clear
3:15 PM 42.8 °F 34.5 °F -4.0 °F 14% 29.94 in 10.0 mi NW 18.4 mph 24.2 mph N/A   Clear
3:35 PM 42.8 °F 36.2 °F -4.0 °F 14% 29.95 in 10.0 mi NW 12.7 mph 20.7 mph N/A   Clear
3:55 PM 42.8 °F 35.8 °F -4.0 °F 14% 29.96 in 10.0 mi NW 13.8 mph 20.7 mph N/A   Clear
4:15 PM 42.8 °F 36.6 °F -2.2 °F 15% 29.95 in 10.0 mi NW 11.5 mph - N/A   Clear
4:35 PM 42.8 °F 36.2 °F -0.4 °F 16% 29.96 in 10.0 mi NNW 12.7 mph 21.9 mph N/A   Clear
4:55 PM 41.0 °F 32.8 °F -0.4 °F 18% 29.96 in 10.0 mi NW 16.1 mph 24.2 mph N/A   Clear
5:15 PM 41.0 °F 33.1 °F -0.4 °F 18% 29.96 in 10.0 mi NW 15.0 mph 24.2 mph N/A   Clear
5:35 PM 39.2 °F 29.8 °F -2.2 °F 17% 29.97 in 10.0 mi NW 18.4 mph 27.6 mph N/A   Clear
5:55 PM 37.4 °F 28.2 °F -0.4 °F 20% 29.98 in 10.0 mi NW 16.1 mph 20.7 mph N/A   Clear
6:15 PM 37.4 °F 28.9 °F 1.4 °F 22% 29.99 in 10.0 mi NW 13.8 mph - N/A   Clear
6:35 PM 37.4 °F 31.4 °F 3.2 °F 24% 30.00 in 10.0 mi NW 8.1 mph 18.4 mph N/A   Clear
6:55 PM 35.6 °F 27.5 °F 3.2 °F 26% 30.00 in 10.0 mi NW 11.5 mph - N/A   Clear
7:15 PM 33.8 °F 25.3 °F 10.4 °F 38% 30.01 in 10.0 mi WNW 11.5 mph - N/A   Clear
7:35 PM 33.8 °F 27.0 °F 10.4 °F 38% 30.02 in 10.0 mi WNW 8.1 mph - N/A   Clear
7:55 PM 33.8 °F 27.0 °F 8.6 °F 35% 30.02 in 10.0 mi WNW 8.1 mph - N/A   Clear
8:35 PM 33.8 °F 26.4 °F 8.6 °F 35% 30.03 in 10.0 mi NW 9.2 mph - N/A   Clear
9:15 PM 33.8 °F 25.8 °F 8.6 °F 35% 30.04 in 10.0 mi NW 10.4 mph - N/A   Clear
9:35 PM 32.0 °F 25.6 °F 10.4 °F 41% 30.04 in 10.0 mi WNW 6.9 mph - N/A   Clear
9:55 PM 32.0 °F 24.8 °F 10.4 °F 41% 30.04 in 10.0 mi WNW 8.1 mph - N/A   Clear
10:15 PM 32.0 °F 27.5 °F 10.4 °F 41% 30.05 in 10.0 mi WNW 4.6 mph - N/A   Clear
10:35 PM 32.0 °F 28.7 °F 10.4 °F 41% 30.05 in 10.0 mi West 3.5 mph - N/A   Clear
10:55 PM 32.0 °F 26.4 °F 10.4 °F 41% 30.05 in 10.0 mi WNW 5.8 mph - N/A   Clear
11:15 PM 32.0 °F 25.6 °F 10.4 °F 41% 30.04 in 10.0 mi WNW 6.9 mph - N/A   Clear
11:35 PM 32.0 °F 25.6 °F 10.4 °F 41% 30.04 in 10.0 mi WNW 6.9 mph - N/A   Clear
11:55 PM 32.0 °F 25.6 °F 10.4 °F 41% 30.04 in 10.0 mi WNW 6.9 mph - N/A   Clear